Temp
-11 -11 -11 -11 -12 -12 -12 -12 -13 -13 -13 -13 -12 -12 -13 -13 -13 -12 -12 -13 -13 -13 -13 -13 -14 -14 -14 -14 -14 -14 -14 -14
-12 -12 -12 -12 -12 -12 -12 -13 -13 -14 -13 -13 -13 -13 -13 -13 -14 -13 -13 -14 -14 -14 -14 -14 -14 -14 -15 -15 -14 -15 -15 -15
-12 -12 -13 -13 -13 -13 -13 -13 -13 -13 -14 -14 -14 -14 -14 -14 -14 -14 -14 -14 -14 -15 -15 -15 -15 -15 -15 -16 -15 -15 -15 -15
-12 -12 -13 -13 -13 -13 -13 -13 -13 -14 -14 -14 -14 -14 -15 -15 -15 -14 -15 -15 -15 -15 -16 -16 -16 -16 -16 -15 -15 -16 -16 -16
-13 -13 -13 -13 -14 -14 -14 -14 -13 -13 -14 -15 -15 -15 -15 -15 -15 -15 -15 -16 -16 -16 -16 -16 -16 -16 -16 -16 -16 -16 -16 -17
-13 -13 -13 -14 -13 -13 -14 -14 -14 -14 -14 -15 -15 -15 -15 -15 -16 -16 -16 -16 -16 -17 -17 -17 -17 -17 -18 -18 -18 -18 -19 -19
-13 -13 -13 -14 -14 -14 -14 -15 -14 -15 -15 -15 -16 -16 -16 -16 -16 -16 -17 -17 -17 -18 -19 -19 -19 -20 -20 -20 -20 -20 -20 -20
-14 -14 -14 -14 -14 -14 -15 -15 -15 -15 -16 -16 -16 -17 -17 -17 -17 -18 -18 -19 -20 -20 -20 -20 -20 -20 -20 -20 -21 -21 -21 -21
-14 -15 -15 -15 -15 -15 -15 -16 -16 -16 -16 -17 -17 -17 -17 -18 -19 -20 -20 -20 -20 -21 -21 -21 -21 -21 -22 -22 -22 -23 -23 -23
-15 -15 -15 -15 -15 -15 -16 -16 -16 -17 -17 -17 -18 -18 -19 -20 -20 -21 -21 -21 -21 -22 -22 -22 -23 -23 -24 -25 -25 -25 -25 -25
-15 -15 -15 -15 -15 -16 -16 -16 -17 -17 -17 -18 -19 -20 -20 -21 -21 -21 -22 -22 -23 -23 -24 -25 -25 -26 -26 -27 -27 -27 -27 -27
-15 -15 -15 -16 -16 -16 -17 -17 -17 -18 -19 -20 -20 -21 -21 -21 -22 -22 -23 -23 -24 -25 -26 -26 -27 -27 -27 -27 -27 -27 -27 -27
-15 -15 -16 -16 -16 -17 -17 -18 -18 -19 -20 -20 -21 -21 -21 -22 -23 -23 -24 -25 -26 -26 -27 -27 -27 -27 -27 -27 -27 -27 -27 -27
-15 -16 -16 -16 -17 -17 -18 -19 -20 -20 -20 -21 -21 -21 -22 -23 -24 -25 -26 -27 -27 -27 -27 -27 -27 -27 -27 -27 -27 -27 -27 -27
-16 -16 -16 -17 -17 -18 -19 -20 -21 -21 -21 -21 -22 -23 -23 -24 -26 -26 -27 -27 -27 -27 -27 -27 -27 -27 -27 -27 -27 -27 -27 -28
-16 -16 -17 -17 -18 -19 -20 -21 -21 -21 -21 -22 -23 -24 -25 -26 -27 -27 -27 -27 -27 -27 -27 -27 -27 -27 -27 -27 -27 -27 -27 -27
-16 -17 -17 -18 -19 -20 -21 -21 -21 -22 -22 -24 -24 -26 -26 -27 -28 -27 -27 -27 -27 -27 -27 -27 -27 -27 -27 -27 -27 -27 -27 -27
-17 -17 -18 -19 -20 -21 -21 -21 -22 -22 -24 -24 -26 -27 -27 -28 -27 -27 -28 -27 -27 -27 -27 -27 -27 -27 -27 -27 -27 -27 -27 -27
-17 -18 -19 -20 -21 -21 -21 -22 -23 -24 -25 -25 -27 -27 -28 -27 -27 -28 -27 -27 -27 -27 -27 -27 -27 -27 -27 -27 -27 -27 -28 -28
-18 -19 -20 -21 -21 -21 -22 -23 -24 -25 -26 -27 -27 -28 -27 -27 -27 -27 -27 -27 -27 -27 -27 -27 -27 -27 -28 -28 -28 -28 -28 -28
Height
5822 5818 5814 5810 5805 5801 5797 5791 5786 5781 5776 5771 5766 5761 5756 5751 5746 5741 5737 5733 5729 5724 5720 5715 5712 5709 5705 5702 5699 5696 5693 5689
5817 5813 5808 5804 5798 5794 5789 5784 5777 5774 5768 5762 5756 5751 5745 5741 5733 5729 5724 5719 5715 5710 5705 5700 5696 5694 5690 5685 5684 5681 5678 5675
5810 5806 5802 5797 5791 5787 5782 5775 5769 5763 5758 5751 5744 5738 5733 5727 5724 5716 5711 5705 5701 5695 5690 5685 5680 5676 5674 5671 5666 5663 5661 5659
5804 5799 5793 5789 5784 5778 5772 5766 5760 5754 5746 5739 5734 5728 5722 5715 5710 5704 5698 5694 5686 5681 5676 5670 5664 5659 5654 5652 5649 5646 5643 5640
5800 5793 5787 5781 5775 5769 5762 5755 5749 5743 5738 5728 5723 5716 5710 5703 5696 5689 5682 5676 5669 5663 5657 5652 5647 5641 5636 5631 5628 5625 5622 5620
5793 5787 5781 5774 5768 5761 5753 5747 5740 5733 5727 5722 5712 5704 5698 5690 5682 5675 5667 5660 5653 5646 5639 5633 5627 5621 5616 5612 5608 5603 5600 5597
5786 5780 5775 5768 5761 5754 5746 5738 5732 5725 5718 5710 5701 5693 5685 5676 5667 5659 5650 5642 5635 5627 5620 5613 5606 5600 5595 5591 5586 5583 5580 5576
5781 5775 5768 5761 5753 5746 5739 5731 5723 5715 5706 5699 5689 5680 5670 5660 5651 5642 5633 5624 5616 5608 5601 5594 5587 5580 5574 5569 5564 5559 5556 5554
5775 5768 5761 5753 5745 5738 5730 5722 5713 5703 5694 5685 5676 5666 5655 5645 5634 5625 5616 5607 5599 5590 5581 5574 5567 5559 5553 5547 5542 5538 5534 5532
5768 5761 5753 5746 5737 5730 5721 5712 5702 5692 5682 5671 5661 5651 5640 5629 5619 5609 5599 5589 5580 5571 5562 5554 5546 5540 5534 5529 5523 5520 5517 5514
5762 5754 5746 5738 5730 5720 5712 5703 5692 5681 5669 5656 5645 5635 5624 5613 5603 5592 5582 5572 5562 5553 5545 5538 5531 5525 5520 5515 5511 5507 5503 5500
5754 5746 5738 5730 5721 5711 5700 5689 5678 5666 5655 5643 5632 5621 5610 5598 5586 5576 5565 5556 5547 5539 5532 5525 5520 5515 5511 5505 5500 5495 5492 5488
5748 5740 5731 5722 5712 5701 5689 5676 5663 5652 5641 5631 5619 5606 5593 5581 5570 5560 5551 5542 5534 5528 5522 5516 5510 5504 5499 5494 5489 5484 5479 5478
5741 5733 5723 5712 5701 5689 5677 5665 5653 5641 5629 5617 5604 5591 5579 5568 5558 5548 5540 5533 5526 5520 5513 5506 5500 5493 5487 5483 5479 5476 5469 5466
5735 5725 5714 5702 5689 5677 5665 5653 5641 5629 5616 5603 5589 5578 5567 5557 5548 5539 5532 5526 5519 5511 5504 5497 5490 5485 5479 5474 5469 5465 5461 5456
5727 5716 5705 5693 5680 5668 5656 5644 5632 5618 5605 5590 5578 5567 5557 5548 5540 5533 5526 5518 5510 5503 5495 5488 5482 5477 5471 5465 5460 5454 5451 5449
5720 5709 5697 5684 5671 5659 5646 5633 5620 5606 5593 5580 5569 5558 5549 5541 5535 5528 5520 5511 5502 5495 5488 5481 5474 5468 5462 5456 5451 5445 5440 5436
5712 5700 5687 5675 5663 5650 5637 5624 5610 5597 5584 5572 5561 5551 5543 5537 5530 5522 5513 5504 5495 5488 5480 5473 5466 5460 5453 5447 5441 5435 5430 5426
5704 5692 5679 5667 5655 5642 5628 5615 5601 5588 5576 5565 5555 5546 5539 5532 5524 5516 5506 5497 5488 5480 5473 5466 5459 5452 5445 5438 5431 5425 5420 5415
5697 5685 5673 5661 5648 5635 5621 5606 5593 5581 5569 5558 5550 5542 5535 5527 5518 5508 5499 5490 5482 5474 5466 5459 5451 5444 5438 5430 5424 5416 5410 5404
Wind_Speed
35 39 37 36 37 39 41 44 46 44 45 47 51 52 54 55 55 57 59 59 57 59 63 64 62 61 60 61 63 63 63 63
35 34 35 39 41 40 45 46 52 48 49 52 57 56 56 55 59 60 62 61 63 64 64 64 64 64 64 65 64 65 65 66
36 34 36 39 37 40 46 49 53 51 53 58 61 61 60 59 59 61 62 65 65 65 66 67 67 67 66 65 67 68 68 68
36 34 43 45 44 47 49 48 51 51 53 53 52 58 56 57 62 64 65 65 67 67 67 67 67 67 67 67 67 66 67 68
39 45 43 42 44 46 53 50 51 53 56 54 57 59 61 65 67 67 68 68 69 68 67 66 67 69 71 71 72 73 73 73
42 42 41 42 46 49 46 51 54 56 56 57 62 64 65 67 68 68 69 69 69 70 71 72 72 72 70 69 69 71 72 72
39 40 43 45 48 52 53 52 54 56 58 59 61 64 65 67 69 69 71 72 72 70 69 68 68 68 68 68 69 70 70 71
40 44 44 47 52 49 50 53 55 57 60 63 65 67 68 69 70 71 70 68 68 67 68 68 69 70 71 72 71 71 71 72
43 43 46 52 51 52 53 56 57 62 65 66 68 69 70 72 70 68 67 67 69 70 70 70 69 68 67 65 64 63 64 64
45 47 52 51 52 54 57 59 63 65 67 70 69 70 69 67 67 68 70 70 70 69 67 65 62 59 57 55 53 51 50 50
48 51 50 52 54 56 59 62 65 67 70 69 68 66 66 68 70 70 69 68 64 61 57 54 50 48 45 43 42 42 41 40
50 49 52 53 56 60 64 67 70 71 68 66 65 67 70 71 69 66 63 60 56 52 48 44 42 42 43 44 44 43 43 42
46 49 52 56 60 63 67 70 69 67 66 65 68 71 70 67 64 61 57 53 49 44 41 43 45 45 42 40 40 40 41 39
48 51 55 60 63 66 69 67 66 63 65 69 72 70 65 61 58 54 49 44 41 43 45 44 42 40 38 35 35 33 37 37
50 55 59 62 66 68 67 65 63 64 68 71 69 63 61 56 52 47 41 42 44 45 43 41 37 34 34 35 35 34 32 34
54 58 62 65 67 66 62 62 63 66 70 68 62 59 53 50 44 40 43 45 46 43 41 36 33 33 33 34 34 35 34 33
57 60 64 66 65 62 62 63 65 68 67 61 58 52 48 41 38 42 44 45 44 41 37 34 34 35 34 33 34 35 35 37
59 63 65 63 61 61 62 64 66 66 60 57 51 47 40 37 41 44 45 43 41 38 35 34 35 34 34 34 35 35 35 35
61 62 61 60 60 62 64 66 65 59 56 52 45 39 36 39 43 45 43 41 39 37 35 35 35 35 35 35 36 36 35 34
58 59 59 58 61 64 65 64 58 56 52 45 40 35 38 42 45 44 42 40 39 36 37 36 37 36 37 38 36 36 35 32
Wind_Direction
304 305 298 296 295 291 294 291 290 291 293 292 290 292 292 290 293 293 293 294 290 287 286 285 283 282 280 278 277 277 276 276
310 307 304 296 289 290 287 315 289 306 296 290 288 288 293 294 294 294 295 293 291 290 288 285 283 281 280 280 278 278 276 276
309 304 305 307 313 314 308 306 306 303 299 294 290 292 294 296 296 295 294 293 291 290 288 286 286 285 283 283 282 281 279 277
310 302 312 319 317 311 305 305 303 303 304 299 300 302 302 297 296 295 293 292 291 290 289 290 289 289 287 285 282 279 277 276
313 326 320 313 308 309 305 300 302 302 302 306 305 303 301 299 298 297 296 296 296 295 294 293 290 289 287 285 282 279 277 274
324 320 318 316 314 311 311 306 304 305 306 305 303 301 300 299 300 300 299 299 299 298 295 292 289 287 285 282 280 279 277 275
322 319 316 312 309 308 308 307 306 305 304 303 303 303 303 303 303 303 303 302 299 296 295 294 292 290 287 285 282 279 276 274
318 312 310 309 311 309 309 308 307 307 307 307 307 307 307 308 307 305 303 301 300 299 297 294 293 291 290 288 285 281 278 275
315 312 311 313 313 312 312 311 310 310 310 310 310 311 310 309 307 305 304 302 301 300 298 297 295 293 290 288 285 282 279 276
315 314 314 314 313 313 312 312 312 312 312 313 313 312 310 309 308 306 305 305 304 302 301 299 298 296 295 294 293 290 287 283
312 313 314 313 313 313 313 312 313 314 315 315 313 312 311 310 309 308 308 307 306 305 304 303 303 302 302 300 298 296 293 290
313 314 313 314 314 314 315 315 316 317 317 315 315 314 312 311 311 312 311 310 310 310 309 308 307 305 303 300 297 294 291 288
313 313 314 314 315 317 316 319 319 318 318 318 317 316 316 316 315 315 315 315 314 314 313 310 308 306 304 300 298 296 293 288
314 315 316 317 318 318 320 320 320 319 319 320 320 319 318 318 319 318 318 318 318 315 313 313 311 308 307 305 302 300 296 297
316 318 319 320 320 321 322 321 320 321 322 323 322 321 321 322 322 321 322 321 319 317 317 315 313 312 311 308 307 304 300 298
319 320 321 321 322 322 322 321 322 324 325 324 323 324 325 324 324 325 324 323 320 320 320 318 317 316 312 311 311 309 307 302
320 322 321 322 324 324 324 325 326 327 326 325 327 327 326 327 327 326 326 324 323 324 323 320 319 317 314 314 313 310 307 304
322 322 324 325 326 328 328 328 327 327 327 329 329 329 330 330 329 328 328 327 326 326 324 322 321 319 316 313 311 309 306 303
324 326 327 329 331 331 330 328 328 329 331 332 331 332 332 332 332 332 331 330 329 328 327 324 322 319 317 316 314 311 308 304
327 329 331 333 332 332 330 330 332 333 335 335 335 337 336 335 335 335 334 333 332 332 329 326 323 321 321 320 318 313 310 307